Location: Bemmer
(51.5498°N, 5.6249°E)
Time: 02:59:19
(UTC+00:00)

USA 308 - Pass Details

Date: 03 March 2021
Orbit: 568 x 576 km, 54.0° (Epoch: 13 April)

Event Time Altitude Azimuth Distance (km) Brightness Sun altitude
Rises 20:06:30 0° 286° (WNW) 2,778 7.7 -25.9°
Reaches altitude 10° 20:08:46 10° 288° (WNW) 1,878 6.5 -26.2°
Enters shadow 20:12:07 52° 306° (NW) 711 3.6 -26.7°
